STARLINK-4057 (53269 NORAD) Tracking and Keplerian Element Data

This shows tracking and keplerian element data for the satellite.

Feedback or suggestion? Click here.




ElementValue
Catalog53269
NameSTARLINK-4057
Epoch Orbit1081
Epoch Day270.25001157
Epoch Year2022
RAAN83.1675
Inclination53.2168
Eccentricity0.0001808
Argument of Perigee31.4859
Mean Anonmoly114.6732
Mean Motion15.62992124
Decay Rate-0.01078682
L11 53269U 22086AD 22270.25001157 -.01078682 00000+0 -12828-1 0 9992
L22 53269 53.2168 83.1675 0001808 31.4859 114.6732 15.62992124 10814

Live tracking and technical data element details for STARLINK-4057 (NORAD 53269). STARLINK-4057 can be tracked NOW for your location showing map with azimuth and elevation plus other details from your city location.

Track the satellite on the map from your city or location and see movement details for azimuth, elevation, latitude, longitude, range, height, and movement on the map or in text.







IsCatalogInMostPopularTable: catalog: 53269, numindb: 4
Update: records affected: 1



GetName: 53269 STARLINK-4057

Hit Count: updated at: Fri, 30 Sep 2022 04:16:30 GMT